Gwinner, ND

5:16 PM CDT on September 26, 2017 (GMT -0500)
Gwinner-melroe

Weather History for KGWR - April, 2013

Change the Weather History Date:

Wednesday, April 24, 2013

  Actual Average (KP67) Record (KP67)
Temperature  
Mean Temperature 35 °F -  
Max Temperature 42 °F 59 °F 81 °F (1998)
Min Temperature 28 °F 35 °F 33 °F (1997)
Degree Days  
Heating Degree Days 30    
Moisture  
Dew Point 29 °F    
Average Humidity 83    
Maximum Humidity 100    
Minimum Humidity 53    
Precipitation  
Precipitation 0.00 in - - ()
Sea Level Pressure  
Sea Level Pressure 29.96 in    
Wind  
Wind Speed 12 mph (West)    
Max Wind Speed 30 mph    
Max Gust Speed 40 mph    
Visibility 10 miles    
Events      
Averages and records for this station are not official NWS values.
T = Trace of Precipitation, MM = Missing Value Source: NWS Daily Summary

Daily Weather History Graph

Daily Weather History Graph

Search for Another Location

Airport or City:

Trip Planner

Search our weather history database for the weather conditions in past years. The results will help you decide how hot, cold, wet, or windy it might be!

Date:

Astronomy

Apr. 24, 2013 Rise Set
Actual Time 6:27 AM CDT 8:30 PM CDT
Civil Twilight 5:55 AM CDT 9:02 PM CDT
Nautical Twilight 5:15 AM CDT 9:43 PM CDT
Astronomical Twilight 4:31 AM CDT 10:27 PM CDT
Moon 7:33 PM CDT (4/24) 5:36 AM CDT (4/24)
Length of Visible Light 15h 07m
Length of Day
14h 02m
Waxing Gibbous, 98% of the Moon is Illuminated
Apr 24
Waxing Gibbous
Apr 25
Full
May 2
Last Quarter
May 9
New
May 17
First Quarter

Hourly Weather History & Observations

Time (CDT) Temp. Windchill Dew Point Humidity Pressure Visibility Wind Dir Wind Speed Gust Speed Precip Events Conditions
12:15 AM 30.2 °F 23.4 °F 28.4 °F 93% 30.02 in 10.0 mi WSW 6.9 mph - 0.00 in   Unknown
12:35 AM 32.0 °F 23.0 °F 28.4 °F 87% 30.02 in 10.0 mi WSW 11.5 mph - 0.00 in   Unknown
12:55 AM 32.0 °F 23.0 °F 28.4 °F 87% 30.02 in 10.0 mi WSW 11.5 mph - 0.00 in   Clear
1:15 AM 32.0 °F 24.2 °F 28.4 °F 87% 30.01 in 10.0 mi WSW 9.2 mph - 0.00 in   Clear
1:35 AM 30.2 °F 21.9 °F 28.4 °F 93% 30.01 in 10.0 mi WSW 9.2 mph - 0.00 in   Clear
1:55 AM 30.2 °F 22.6 °F 26.6 °F 86% 30.00 in 10.0 mi WSW 8.1 mph - 0.00 in   Clear
2:15 AM 30.2 °F 21.9 °F 26.6 °F 86% 29.99 in 10.0 mi WSW 9.2 mph - 0.00 in   Unknown
2:35 AM 30.2 °F 22.6 °F 26.6 °F 86% 29.99 in 10.0 mi WSW 8.1 mph - 0.00 in   Unknown
2:55 AM 30.2 °F 21.9 °F 28.4 °F 93% 29.98 in 10.0 mi SW 9.2 mph - 0.00 in   Clear
3:15 AM 30.2 °F 22.6 °F 28.4 °F 93% 29.97 in 10.0 mi SSW 8.1 mph - 0.00 in   Clear
3:55 AM 28.4 °F 19.1 °F 28.4 °F 100% 29.96 in 10.0 mi SW 10.4 mph - 0.00 in   Unknown
4:15 AM 28.4 °F 20.4 °F 26.6 °F 93% 29.95 in 10.0 mi SW 8.1 mph - 0.00 in   Unknown
4:35 AM 28.4 °F 19.7 °F 26.6 °F 93% 29.95 in 10.0 mi SW 9.2 mph - 0.00 in   Unknown
4:55 AM 30.2 °F 21.3 °F 28.4 °F 93% 29.95 in 10.0 mi SW 10.4 mph - 0.00 in   Clear
5:15 AM 28.4 °F 20.4 °F 28.4 °F 100% 29.94 in 10.0 mi SW 8.1 mph - 0.00 in   Unknown
5:35 AM 30.2 °F 21.9 °F 28.4 °F 93% 29.94 in 10.0 mi SSW 9.2 mph - 0.00 in   Unknown
5:55 AM 30.2 °F 21.3 °F 28.4 °F 93% 29.93 in 10.0 mi SSW 10.4 mph - 0.00 in   Partly Cloudy
6:15 AM 30.2 °F 21.3 °F 28.4 °F 93% 29.92 in 10.0 mi SSW 10.4 mph - 0.00 in   Unknown
6:35 AM 32.0 °F 24.8 °F 30.2 °F 93% 29.91 in 10.0 mi South 8.1 mph - 0.00 in   Unknown
6:55 AM 32.0 °F 23.6 °F 30.2 °F 93% 29.92 in 10.0 mi SSW 10.4 mph - 0.00 in   Partly Cloudy
7:15 AM 32.0 °F 23.6 °F 30.2 °F 93% 29.91 in 10.0 mi SSW 10.4 mph - 0.00 in   Mostly Cloudy
7:35 AM 32.0 °F 23.6 °F 30.2 °F 93% 29.91 in 10.0 mi SW 10.4 mph - 0.00 in   Overcast
7:55 AM 32.0 °F 23.0 °F 30.2 °F 93% 29.92 in 10.0 mi WSW 11.5 mph - 0.00 in   Unknown
8:15 AM 32.0 °F 24.2 °F 30.2 °F 93% 29.91 in 10.0 mi WSW 9.2 mph - 0.00 in   Scattered Clouds
8:35 AM 33.8 °F 26.4 °F 30.2 °F 87% 29.91 in 10.0 mi West 9.2 mph - 0.00 in   Clear
8:55 AM 33.8 °F 27.0 °F 32.0 °F 93% 29.91 in 10.0 mi West 8.1 mph - 0.00 in   Unknown
9:15 AM 33.8 °F 26.4 °F 32.0 °F 93% 29.91 in 10.0 mi West 9.2 mph - 0.00 in   Clear
9:35 AM 33.8 °F 26.4 °F 32.0 °F 93% 29.92 in 10.0 mi West 9.2 mph - 0.00 in   Clear
9:55 AM 33.8 °F 27.7 °F 32.0 °F 93% 29.92 in 10.0 mi West 6.9 mph - 0.00 in   Clear
10:15 AM 35.6 °F 29.2 °F 32.0 °F 87% 29.92 in 10.0 mi West 8.1 mph - 0.00 in   Clear
10:35 AM 35.6 °F 29.2 °F 33.8 °F 93% 29.92 in 10.0 mi West 8.1 mph - 0.00 in   Unknown
10:55 AM 37.4 °F 30.8 °F 33.8 °F 87% 29.91 in 10.0 mi West 9.2 mph - 0.00 in   Unknown
11:15 AM 37.4 °F 30.8 °F 35.6 °F 93% 29.92 in 9.0 mi West 9.2 mph - 0.00 in   Clear
11:35 AM 37.4 °F 30.8 °F 35.6 °F 93% 29.92 in 9.0 mi West 9.2 mph - 0.00 in   Clear
11:55 AM 37.4 °F 29.8 °F 35.6 °F 93% 29.93 in 10.0 mi West 11.5 mph - 0.00 in   Mostly Cloudy
12:15 PM 37.4 °F 28.5 °F 35.6 °F 93% 29.93 in 10.0 mi West 15.0 mph - 0.00 in   Overcast
12:35 PM 37.4 °F 28.2 °F 33.8 °F 87% 29.93 in 9.0 mi West 16.1 mph 19.6 mph 0.00 in   Mostly Cloudy
12:55 PM 39.2 °F 30.5 °F 33.8 °F 81% 29.93 in 10.0 mi West 16.1 mph - 0.00 in   Scattered Clouds
1:15 PM 39.2 °F 30.8 °F 33.8 °F 81% 29.93 in 10.0 mi West 15.0 mph - 0.00 in   Partly Cloudy
1:35 PM 39.2 °F 31.2 °F 33.8 °F 81% 29.92 in 10.0 mi West 13.8 mph - 0.00 in   Clear
1:55 PM 41.0 °F 33.1 °F 32.0 °F 70% 29.91 in 10.0 mi West 15.0 mph - 0.00 in   Clear
2:15 PM 42.8 °F 35.1 °F 30.2 °F 61% 29.91 in 10.0 mi WNW 16.1 mph 21.9 mph 0.00 in   Clear
2:35 PM 42.8 °F 35.4 °F 30.2 °F 61% 29.91 in 10.0 mi West 15.0 mph - 0.00 in   Clear
2:55 PM 42.8 °F 35.8 °F 30.2 °F 61% 29.91 in 10.0 mi West 13.8 mph 20.7 mph 0.00 in   Clear
3:15 PM 42.8 °F 35.4 °F 28.4 °F 57% 29.91 in 10.0 mi West 15.0 mph - 0.00 in   Partly Cloudy
3:35 PM 42.8 °F 36.6 °F 28.4 °F 57% 29.91 in 10.0 mi West 11.5 mph - 0.00 in   Partly Cloudy
3:55 PM 42.8 °F 35.8 °F 26.6 °F 53% 29.91 in 10.0 mi WNW 13.8 mph - 0.00 in   Mostly Cloudy
4:15 PM 37.4 °F 25.6 °F 33.8 °F 87% 29.94 in 3.0 mi NW 26.5 mph 40.3 mph 0.00 in   Mostly Cloudy
4:35 PM 33.8 °F 21.9 °F 33.8 °F 100% 29.96 in 0.2 mi NW 21.9 mph 26.5 mph 0.00 in   Unknown
4:55 PM 33.8 °F 21.9 °F 33.8 °F 100% 29.96 in 0.5 mi NW 21.9 mph - 0.00 in   Unknown
5:15 PM 33.8 °F 22.5 °F 33.8 °F 100% 29.96 in 3.0 mi NW 19.6 mph 25.3 mph 0.00 in   Unknown
5:35 PM 35.6 °F 23.7 °F 32.0 °F 87% 29.96 in 10.0 mi NW 24.2 mph 28.8 mph 0.00 in   Mostly Cloudy
5:55 PM 35.6 °F 24.0 °F 30.2 °F 81% 29.97 in 10.0 mi WNW 23.0 mph 31.1 mph 0.00 in   Mostly Cloudy
6:15 PM 35.6 °F 22.5 °F 30.2 °F 81% 29.98 in 10.0 mi NW 29.9 mph - 0.00 in   Mostly Cloudy
6:35 PM 35.6 °F 23.2 °F 24.8 °F 65% 29.99 in 10.0 mi NW 26.5 mph 33.4 mph 0.00 in   Mostly Cloudy
6:55 PM 35.6 °F 23.4 °F 24.8 °F 65% 30.00 in 10.0 mi NW 25.3 mph 32.2 mph 0.00 in   Unknown
7:15 PM 33.8 °F 21.6 °F 23.0 °F 65% 30.01 in 10.0 mi NW 23.0 mph 27.6 mph 0.00 in   Scattered Clouds
7:35 PM 33.8 °F 22.5 °F 21.2 °F 60% 30.02 in 10.0 mi NW 19.6 mph 32.2 mph 0.00 in   Scattered Clouds
7:55 PM 33.8 °F 22.2 °F 21.2 °F 60% 30.02 in 10.0 mi WNW 20.7 mph 28.8 mph 0.00 in   Mostly Cloudy
8:15 PM 33.8 °F 23.9 °F 23.0 °F 65% 30.03 in 10.0 mi NW 15.0 mph 28.8 mph 0.00 in   Mostly Cloudy
8:35 PM 32.0 °F 21.2 °F 23.0 °F 69% 30.03 in 10.0 mi NW 16.1 mph 21.9 mph 0.00 in   Unknown
8:55 PM 32.0 °F 19.5 °F 24.8 °F 75% 30.04 in 10.0 mi NW 21.9 mph - 0.00 in   Unknown
10:35 PM 32.0 °F 22.1 °F 23.0 °F 69% 30.08 in 10.0 mi NW 13.8 mph 20.7 mph 0.00 in   Unknown
10:55 PM 32.0 °F 22.1 °F 23.0 °F 69% 30.08 in 10.0 mi NW 13.8 mph - 0.00 in   Mostly Cloudy
11:15 PM 32.0 °F 22.1 °F 23.0 °F 69% 30.08 in 10.0 mi WNW 13.8 mph - 0.00 in   Partly Cloudy
11:35 PM 32.0 °F 22.5 °F 23.0 °F 69% 30.08 in 10.0 mi WNW 12.7 mph - 0.00 in   Unknown
11:55 PM 32.0 °F 23.0 °F 23.0 °F 69% 30.08 in 10.0 mi WNW 11.5 mph - 0.00 in   Unknown